Home   Weather   Baton Rouge   Past weeks

Flag for USA Past Weather in Baton Rouge, Louisiana, USA — Yesterday and Last 2 Weeks

Now
64 °F

Clear.


Feels Like: 64 °F
Forecast: 59 / 83 °F
Wind: No wind

Location: Baton Rouge Metropolitan - Ryan Field

Current Time: Oct 1, 2016 at 12:05:13 AM

Latest Report: Sep 30, 2016 at 10:53 PM


Visibility: 10 mi

Pressure: 30.07 "Hg

Humidity: 87%

Dew Point: 60 °F

Location of Baton RougeLocation

Past Weather in Baton Rouge — Graph

°F

Baton Rouge Temperature Yesterday

Maximum temperature yesterday: 82 °F (at 2:53 PM)
Minimum temperature yesterday: 56 °F (at 6:53 AM)
Average temperature yesterday: 69 °F

High & Low Weather Summary for the Past Weeks

 TemperatureHumidityPressure
High93 °F (Sep 19, 2:53 PM)100% (Sep 18, 12:53 AM)30.15 "Hg (Sep 18, 12:53 AM)
Low56 °F (Sep 30, 6:53 AM)38% (Sep 30, 2:53 PM)29.90 "Hg (Sep 27, 5:53 PM)
Average79 °F77%30.00 "Hg
* Reported Sep 15 10:53 PM — Sep 30 10:53 PM, Baton Rouge, Weather by CustomWeather, © 2016

Note: Actual official high and low records may vary slightly from our data, if they occured in-between our weather recording intervals... More about our weather records

Advertising

Baton Rouge Weather History for the Previous 24 Hours

Scroll right to see more
 ConditionsComfort  
Time TempWeatherWind HumidityBarometerVisibility
10:53 PM
Fri, Sep 30
64 °FClear.No wind87%30.07 "Hg10 mi
9:53 PM64 °FClear.No wind90%30.06 "Hg10 mi
8:53 PM66 °FClear.No wind84%30.06 "Hg10 mi
7:53 PM69 °FClear.3 mph76%30.05 "Hg10 mi
6:53 PM74 °FClear.5 mph53%30.05 "Hg10 mi
5:53 PM79 °FScattered clouds.5 mph44%30.04 "Hg10 mi
4:53 PM81 °FScattered clouds.8 mph41%30.04 "Hg10 mi
3:53 PM79 °FScattered clouds.8 mph42%30.04 "Hg10 mi
2:53 PM82 °FScattered clouds.5 mph38%30.06 "Hg10 mi
1:53 PM79 °FSunny.3 mph39%30.09 "Hg10 mi
12:53 PM80 °FPassing clouds.7 mph41%30.12 "Hg10 mi
11:53 AM78 °FSunny.5 mph42%30.14 "Hg10 mi
10:53 AM77 °FSunny.3 mph48%30.15 "Hg10 mi
9:53 AM71 °FSunny.5 mph59%30.15 "Hg10 mi
8:53 AM66 °FSunny.5 mph70%30.15 "Hg10 mi
7:53 AM60 °FSunny.5 mph83%30.13 "Hg10 mi
6:53 AM56 °FClear.5 mph90%30.11 "Hg10 mi
5:53 AM57 °FClear.No wind87%30.10 "Hg10 mi
4:53 AM57 °FClear.No wind87%30.09 "Hg10 mi
3:53 AM58 °FClear.No wind87%30.08 "Hg10 mi
2:53 AM59 °FClear.No wind84%30.09 "Hg10 mi
1:53 AM60 °FClear.5 mph80%30.10 "Hg10 mi
12:53 AM61 °FClear.5 mph78%30.11 "Hg10 mi
Weather by CustomWeather, © 2016

See weather overviewHow to use our weather pages